1486357200.89,39035,9.69,72526.5,-8.07,-30.11,-31.61,0,*55
1486357202.17,39036,9.69,72526.5,-8.11,-30.01,-31.57,0,*55
1486357203.43,39037,9.69,72526.5,-8.07,-30.11,-31.51,0,*54
1486357204.72,39038,9.69,72524.8,-8.11,-30.05,-31.61,0,*5A
1486357206.0,39039,9.69,72524.0,-8.11,-30.05,-31.61,0,*5B
1486357207.29,39040,9.69,72524.3,-8.07,-30.01,-31.51,0,*55
1486357208.54,39041,9.69,72528.0,-8.11,-30.23,-31.85,0,*5A
1486357209.81,39042,9.69,72528.5,-8.07,-30.27,-31.95,0,*5B
1486357211.04,39043,9.69,72528.8,-8.11,-30.33,-32.01,0,*56
1486357212.3,39044,9.69,72532.0,-8.11,-30.17,-31.67,0,*54
1486357213.58,39045,9.69,72530.3,-8.11,-30.05,-31.57,0,*55
1486357214.86,39046,9.69,72530.3,-8.11,-30.01,-31.39,0,*5A
1486357216.14,39047,9.69,72532.3,-8.11,-30.01,-31.57,0,*53
1486357217.43,39048,9.69,72528.0,-8.11,-30.17,-31.61,0,*5E
1486357218.66,39049,9.69,72522.5,-8.11,-30.23,-31.67,0,*5E
1486357219.91,39050,9.69,72526.0,-8.11,-30.23,-31.85,0,*5A
1486357221.17,39051,9.69,72520.0,-8.11,-30.17,-31.67,0,*50
1486357222.46,39052,9.69,72522.8,-8.11,-30.05,-31.61,0,*56
1486357223.72,39053,9.69,72524.8,-8.11,-30.17,-31.67,0,*52
1486357224.95,39054,9.69,72526.0,-8.13,-30.23,-31.91,0,*59
1486357226.18,39055,9.69,72530.5,-8.13,-30.27,-31.91,0,*5C
1486357227.39,39056,9.69,72528.0,-8.13,-30.11,-31.67,0,*53
1486357228.62,39057,9.69,72532.0,-8.13,-30.23,-31.73,0,*56
1486357229.87,39058,9.69,72532.3,-8.13,-30.05,-31.51,0,*5D
1486357231.16,39059,9.69,72534.3,-8.11,-30.17,-31.61,0,*5E
1486357232.44,39060,9.69,72534.0,-8.11,-30.01,-31.57,0,*56
1486357233.73,39061,9.69,72528.0,-8.11,-30.05,-31.61,0,*56
1486357235.01,39062,9.69,72528.0,-8.11,-30.05,-31.61,0,*55
1486357236.27,39063,9.69,72526.0,-8.11,-30.23,-31.85,0,*5A
1486357237.49,39064,9.69,72528.5,-8.11,-30.23,-31.67,0,*51
1486357238.78,39065,9.69,72526.5,-8.11,-30.17,-31.85,0,*5B
1486357240.01,39066,9.69,72524.5,-8.11,-30.23,-31.67,0,*53
1486357241.28,39067,9.69,72534.0,-8.15,-30.27,-31.91,0,*5B
1486357242.51,39068,9.69,72530.5,-8.13,-30.27,-31.91,0,*52
1486357243.75,39069,9.69,72532.5,-8.13,-30.27,-31.91,0,*53
1486357245.02,39070,9.69,72532.3,-8.15,-30.27,-31.91,0,*5D
1486357246.24,39071,9.69,72532.5,-8.13,-30.39,-32.01,0,*5F
1486357247.47,39072,9.69,72532.0,-8.13,-30.39,-32.01,0,*5C
1486357248.7,39073,9.69,72530.0,-8.13,-30.23,-31.91,0,*5C
1486357249.93,39074,9.69,72534.5,-8.13,-30.23,-31.73,0,*57
1486357251.14,39075,9.69,72534.8,-8.13,-30.27,-32.01,0,*54
1486357252.39,39076,9.69,72534.8,-8.15,-30.39,-32.01,0,*5E
1486357253.62,39077,9.69,72530.3,-8.13,-30.39,-32.01,0,*59
1486357254.83,39078,9.69,72532.0,-8.13,-30.27,-32.01,0,*59
1486357256.06,39079,9.69,72534.8,-8.13,-30.45,-32.07,0,*5A
1486357257.31,39080,9.69,72528.8,-8.15,-30.39,-32.01,0,*57
1486357258.57,39081,9.69,72532.0,-8.15,-30.23,-31.91,0,*57
1486357259.81,39082,9.69,72528.8,-8.13,-30.27,-31.91,0,*56
1486357261.03,39083,9.69,72530.8,-8.13,-30.39,-32.01,0,*52
1486357262.29,39084,9.69,72534.3,-8.13,-30.39,-32.07,0,*53
1486357263.56,39085,9.69,72530.3,-8.15,-30.27,-31.91,0,*57
1486357264.83,39086,9.69,72532.5,-8.15,-30.27,-32.19,0,*57
1486357266.06,39087,9.69,72530.0,-8.13,-30.45,-32.07,0,*5B
1486357267.3,39088,9.69,72536.0,-8.13,-30.27,-32.07,0,*50
1486357268.54,39089,9.69,72536.8,-8.13,-30.27,-31.91,0,*5D
1486357269.79,39090,9.69,72538.0,-8.13,-30.05,-31.51,0,*59
1486357271.0,39091,9.69,72530.5,-8.13,-29.95,-31.67,0,*5C
1486357272.26,39092,9.69,72530.8,-8.13,-30.05,-31.61,0,*58
1486357273.51,39093,9.69,72528.3,-8.11,-29.83,-31.45,0,*5B
1486357274.74,39094,9.69,72526.0,-8.13,-30.11,-31.73,0,*58
1486357275.99,39095,9.69,72524.3,-8.13,-30.55,-32.19,0,*56
1486357277.22,39096,9.69,72526.8,-8.13,-30.55,-32.35,0,*5B
1486357278.45,39097,9.69,72528.0,-8.13,-30.61,-32.23,0,*5A
1486357279.68,39098,9.69,72530.5,-8.13,-30.61,-32.35,0,*52
1486357280.94,39099,9.69,72532.3,-8.13,-30.39,-32.07,0,*5F
1486357282.15,39100,9.69,72530.0,-8.13,-30.27,-32.01,0,*57
1486357283.4,39101,9.69,72530.3,-8.15,-30.55,-32.23,0,*55
1486357284.61,39102,9.69,72524.5,-8.13,-30.45,-32.23,0,*51
1486357285.86,39103,9.69,72524.0,-8.15,-30.39,-32.23,0,*5D
1486357287.12,39104,9.69,72528.8,-8.15,-30.55,-32.23,0,*50
1486357288.35,39105,9.69,72538.0,-8.15,-30.45,-32.35,0,*57
1486357289.58,39106,9.69,72534.5,-8.13,-30.61,-32.39,0,*58
1486357290.82,39107,9.69,72532.5,-8.13,-30.45,-32.19,0,*5D
1486357292.04,39108,9.69,72532.0,-8.13,-30.55,-32.23,0,*5A
1486357293.29,39109,9.69,72528.5,-8.11,-30.55,-32.35,0,*5E
1486357294.53,39110,9.69,72534.0,-8.13,-30.61,-32.39,0,*5F
1486357295.79,39111,9.69,72532.5,-8.15,-30.61,-32.39,0,*58
1486357297.06,39112,9.69,72532.0,-8.15,-30.61,-32.39,0,*5B
1486357298.29,39113,9.69,72532.0,-8.15,-30.45,-32.23,0,*57
1486357299.57,39114,9.69,72536.8,-8.15,-30.39,-32.07,0,*5D
1486357300.8,39115,9.69,72538.3,-8.13,-30.55,-32.23,0,*56
1486357302.06,39116,9.69,72534.3,-8.15,-30.55,-32.35,0,*54
1486357303.29,39117,9.69,72532.0,-8.13,-30.61,-32.39,0,*58
1486357304.55,39118,9.69,72532.0,-8.15,-30.55,-32.35,0,*5A
1486357305.81,39119,9.69,72530.3,-8.15,-30.61,-32.39,0,*50
1486357307.07,39120,9.69,72530.5,-8.15,-30.77,-32.57,0,*55
1486357308.33,39121,9.69,72532.5,-8.15,-30.77,-32.57,0,*54
1486357309.59,39122,9.69,72530.5,-8.15,-30.77,-32.57,0,*57
1486357310.82,39123,9.69,72532.5,-8.15,-30.67,-32.57,0,*57
1486357312.08,39124,9.69,72534.3,-8.17,-30.73,-32.45,0,*54
1486357313.34,39125,9.69,72532.5,-8.19,-30.61,-32.39,0,*53
1486357314.59,39126,9.69,72532.3,-8.15,-30.67,-32.39,0,*5A
1486357315.82,39127,9.69,72528.0,-8.13,-30.61,-32.39,0,*5B
1486357317.03,39128,9.69,72526.5,-8.17,-30.45,-32.39,0,*56
1486357318.26,39129,9.69,72528.5,-8.17,-30.51,-32.23,0,*59
1486357319.49,39130,9.69,72528.3,-8.17,-30.67,-32.63,0,*50
1486357320.7,39131,9.69,72528.8,-8.17,-30.67,-32.57,0,*56
1486357321.93,39132,9.69,72528.5,-8.17,-30.61,-32.39,0,*5B
1486357323.16,39133,9.69,72530.3,-8.17,-30.73,-32.57,0,*51
1486357324.39,39134,9.69,72528.3,-8.17,-30.83,-32.63,0,*5E
1486357325.63,39135,9.69,72528.5,-8.15,-30.67,-32.57,0,*50
1486357326.91,39136,9.69,72528.0,-8.19,-30.73,-32.63,0,*5D
1486357328.15,39137,9.69,72524.8,-8.17,-30.67,-32.63,0,*57
1486357329.38,39138,9.69,72524.3,-8.17,-30.83,-32.63,0,*52
1486357330.67,39139,9.69,72524.0,-8.19,-30.73,-32.63,0,*52
1486357331.87,39140,9.69,72528.5,-8.17,-30.67,-32.57,0,*50
1486357333.08,39141,9.69,72532.3,-8.17,-30.67,-32.57,0,*51
1486357334.33,39142,9.69,72534.0,-8.19,-30.73,-32.57,0,*59
1486357335.59,39143,9.69,72536.0,-8.17,-30.73,-32.63,0,*51
1486357336.79,39144,9.69,72532.0,-8.17,-30.67,-32.57,0,*54
1486357338.05,39145,9.69,72532.3,-8.19,-30.67,-32.45,0,*58
1486357339.31,39146,9.69,72532.8,-8.19,-30.67,-32.45,0,*5B
1486357340.54,39147,9.69,72532.0,-8.17,-30.73,-32.57,0,*52
1486357341.82,39148,9.69,72532.5,-8.19,-30.73,-32.63,0,*54
1486357343.06,39149,9.69,72532.5,-8.17,-30.67,-32.63,0,*5E
1486357344.32,39150,9.69,72534.0,-8.19,-30.83,-32.63,0,*52
1486357345.58,39151,9.69,72528.8,-8.17,-30.89,-32.75,0,*50
1486357346.82,39152,9.69,72530.8,-8.17,-31.01,-32.79,0,*5E
1486357348.05,39153,9.69,72528.5,-8.17,-31.01,-32.79,0,*5F
1486357349.28,39154,9.69,72530.5,-8.19,-31.05,-32.91,0,*54
1486357350.52,39155,9.69,72532.3,-8.17,-30.83,-32.75,0,*5E
1486357351.78,39156,9.69,72532.3,-8.19,-30.67,-32.63,0,*5E
1486357353.04,39157,9.69,72534.0,-8.19,-31.01,-32.79,0,*55
1486357354.27,39158,9.69,72534.5,-8.17,-31.01,-32.79,0,*54
1486357355.5,39159,9.69,72530.3,-8.19,-31.01,-32.91,0,*5D
1486357356.74,39160,9.69,72530.0,-8.17,-31.01,-32.75,0,*53
1486357358.03,39161,9.69,72532.0,-8.19,-30.89,-32.75,0,*5D
1486357359.26,39162,9.69,72532.5,-8.19,-31.01,-32.91,0,*55
1486357360.49,39163,9.69,72528.8,-8.19,-31.01,-32.91,0,*54
1486357361.78,39164,9.69,72528.8,-8.19,-30.89,-32.75,0,*58
1486357363.03,39165,9.69,72532.5,-8.19,-31.01,-32.79,0,*54
1486357364.3,39166,9.69,72532.5,-8.19,-30.83,-32.75,0,*50
1486357365.56,39167,9.69,72528.5,-8.19,-31.01,-32.75,0,*5A
1486357366.8,39168,9.69,72534.8,-8.17,-30.83,-32.75,0,*50
1486357368.03,39169,9.69,72532.5,-8.17,-31.01,-32.79,0,*56
1486357369.32,39170,9.69,72540.3,-8.19,-30.89,-32.75,0,*5D
1486357370.58,39171,9.69,72538.0,-8.19,-30.73,-32.57,0,*59
1486357371.8,39172,9.69,72536.8,-8.19,-30.67,-32.57,0,*5F
1486357373.09,39173,9.69,72538.3,-8.19,-30.89,-32.79,0,*52
1486357374.38,39174,9.69,72538.3,-8.19,-30.89,-32.75,0,*59
1486357375.64,39175,9.69,72534.3,-8.19,-31.01,-32.75,0,*59
1486357376.91,39176,9.69,72536.3,-8.19,-30.83,-32.75,0,*51
1486357378.19,39177,9.69,72534.3,-8.19,-30.73,-32.63,0,*58
1486357379.45,39178,9.69,72536.5,-8.19,-30.83,-32.75,0,*5F
1486357380.72,39179,9.69,72542.0,-8.19,-30.67,-32.75,0,*54
1486357381.98,39180,9.69,72540.3,-8.19,-30.83,-32.63,0,*5F
1486357383.24,39181,9.69,72540.0,-8.19,-30.67,-32.45,0,*50
1486357384.47,39182,9.69,72540.3,-8.19,-30.67,-32.57,0,*50
1486357385.75,39183,9.69,72542.0,-8.19,-30.89,-32.63,0,*56
1486357387.01,39184,9.69,72538.5,-8.19,-31.01,-32.75,0,*57
1486357388.3,39185,9.69,72540.3,-8.19,-30.89,-32.79,0,*5B
1486357389.56,39186,9.69,72538.8,-8.21,-30.77,-32.79,0,*52
1486357390.8,39187,9.69,72540.0,-8.21,-30.55,-32.51,0,*59
1486357392.04,39188,9.69,72538.0,-8.21,-30.77,-32.69,0,*5D
1486357393.32,39189,9.69,72542.5,-8.19,-30.73,-32.63,0,*59
1486357394.58,39190,9.69,72536.5,-8.19,-30.83,-32.63,0,*5E
1486357395.81,39191,9.69,72538.5,-8.19,-30.67,-32.57,0,*52
1486357397.07,39192,9.69,72538.3,-8.19,-30.51,-32.39,0,*5C
1486357398.29,39193,9.69,72536.3,-8.21,-30.67,-32.51,0,*5D
1486357399.52,39194,9.69,72538.5,-8.17,-30.83,-32.63,0,*54
1486357400.79,39195,9.69,72536.8,-8.19,-30.83,-32.75,0,*5C
1486357402.08,39196,9.69,72538.3,-8.19,-30.73,-32.75,0,*50
1486357403.34,39197,9.69,72540.0,-8.19,-30.83,-32.75,0,*5E
1486357404.6,39198,9.69,72540.5,-8.19,-30.73,-32.57,0,*5E
1486357405.85,39199,9.69,72538.3,-8.19,-30.61,-32.57,0,*5C
1486357407.13,39200,9.69,72538.3,-8.19,-30.73,-32.63,0,*5B
1486357408.42,39201,9.69,72540.0,-8.19,-30.73,-32.75,0,*5D
1486357409.65,39202,9.69,72536.3,-8.17,-30.67,-32.45,0,*56
1486357410.91,39203,9.69,72538.5,-8.19,-30.67,-32.63,0,*5D
1486357412.17,39204,9.69,72538.3,-8.19,-30.67,-32.63,0,*5A
1486357413.45,39205,9.69,72532.5,-8.19,-30.73,-32.63,0,*5E
1486357414.69,39206,9.69,72530.0,-8.17,-30.89,-32.91,0,*5B
1486357415.92,39207,9.69,72530.0,-8.17,-31.01,-32.97,0,*5D
1486357417.12,39208,9.69,72528.5,-8.17,-31.17,-33.03,0,*59
1486357418.35,39209,9.69,72534.8,-8.17,-31.05,-32.97,0,*57
1486357419.58,39210,9.69,72530.8,-8.17,-31.05,-32.97,0,*5F
1486357420.78,39211,9.69,72530.3,-8.17,-31.05,-32.91,0,*58
1486357421.99,39212,9.69,72532.0,-8.17,-31.05,-32.91,0,*5B
1486357423.2,39213,9.69,72532.5,-8.17,-31.05,-32.91,0,*5A
1486357424.43,39214,9.69,72534.5,-8.17,-31.01,-32.75,0,*53
1486357425.66,39215,9.69,72532.5,-8.17,-31.01,-32.97,0,*5E
1486357426.87,39216,9.69,72532.3,-8.17,-31.01,-32.91,0,*5B
1486357428.12,39217,9.69,72530.5,-8.19,-31.05,-32.97,0,*56
1486357429.35,39218,9.69,72532.8,-8.17,-31.23,-33.15,0,*58
1486357430.61,39219,9.69,72532.8,-8.19,-31.05,-32.97,0,*58
1486357431.84,39220,9.69,72536.5,-8.19,-31.01,-32.91,0,*50
1486357433.04,39221,9.69,72538.8,-8.17,-31.05,-32.91,0,*5B
1486357434.31,39222,9.69,72536.5,-8.19,-30.83,-32.75,0,*53
1486357435.55,39223,9.69,72534.0,-8.17,-30.67,-32.45,0,*55
1486357436.8,39224,9.69,72532.0,-8.19,-31.01,-32.79,0,*52
1486357438.01,39225,9.69,72536.5,-8.17,-31.01,-32.91,0,*5B
1486357439.27,39226,9.69,72538.8,-8.19,-30.89,-32.91,0,*57
1486357440.56,39227,9.69,72540.5,-8.19,-30.89,-32.79,0,*50
1486357441.79,39228,9.69,72540.3,-8.17,-30.83,-32.79,0,*5B
1486357443.02,39229,9.69,72542.8,-8.17,-31.01,-32.97,0,*51
1486357444.23,39230,9.69,72546.3,-8.17,-31.17,-33.15,0,*55
1486357445.43,39231,9.69,72536.8,-8.17,-31.05,-33.03,0,*50
1486357446.7,39232,9.69,72540.3,-8.15,-31.01,-32.85,0,*5A
1486357447.9,39233,9.69,72544.0,-8.17,-31.01,-32.91,0,*5C
1486357449.13,39234,9.69,72542.8,-8.19,-31.05,-33.03,0,*5B
1486357450.34,39235,9.69,72544.0,-8.17,-31.17,-33.21,0,*57
1486357451.54,39236,9.69,72542.8,-8.17,-31.05,-33.15,0,*50
1486357452.75,39237,9.69,72544.3,-8.17,-31.05,-33.15,0,*51
1486357453.97,39238,9.69,72542.5,-8.17,-31.05,-32.97,0,*55
1486357455.21,39239,9.69,72538.3,-8.19,-31.05,-32.91,0,*5C
1486357456.47,39240,9.69,72538.0,-8.17,-30.73,-32.75,0,*56
1486357457.76,39241,9.69,72536.0,-8.19,-30.73,-32.75,0,*59
1486357458.99,39242,9.69,72536.0,-8.17,-30.67,-32.63,0,*56
1486357460.23,39243,9.69,72538.3,-8.17,-30.83,-32.79,0,*56
1486357461.44,39244,9.69,72536.3,-8.17,-31.01,-32.91,0,*5C
1486357462.73,39245,9.69,72532.0,-8.15,-31.11,-32.97,0,*58
1486357464.02,39246,9.69,72534.8,-8.15,-31.11,-33.09,0,*5D
1486357465.28,39247,9.69,72532.5,-8.15,-31.01,-32.97,0,*5B
1486357466.49,39248,9.69,72534.8,-8.17,-31.05,-33.03,0,*5E
1486357467.72,39249,9.69,72536.3,-8.17,-31.23,-33.21,0,*5B
1486357468.96,39250,9.69,72538.5,-8.17,-31.33,-33.31,0,*53
1486357470.22,39251,9.69,72532.8,-8.15,-31.29,-33.31,0,*5B
1486357471.43,39252,9.69,72532.0,-8.17,-31.33,-33.21,0,*50
1486357472.69,39253,9.69,72536.3,-8.19,-31.33,-33.31,0,*5E
1486357473.95,39254,9.69,72538.0,-8.17,-31.51,-33.49,0,*5C
1486357475.16,39255,9.69,72540.3,-8.17,-31.33,-33.37,0,*50
1486357476.39,39256,9.69,72534.5,-8.17,-31.51,-33.37,0,*57
1486357477.63,39257,9.63,72534.3,-8.17,-31.39,-33.37,0,*58
1486357478.86,39258,9.69,72536.8,-8.17,-31.39,-33.37,0,*57
1486357480.1,39259,9.69,72536.3,-8.17,-31.33,-33.31,0,*5A
1486357481.33,39260,9.69,72540.3,-8.17,-31.51,-33.37,0,*52
1486357482.57,39261,9.69,72540.3,-8.19,-31.33,-33.21,0,*5E
1486357483.8,39262,9.69,72540.8,-8.19,-31.17,-33.03,0,*5B
1486357485.01,39263,9.69,72536.3,-8.17,-31.17,-33.15,0,*53
1486357486.25,39264,9.69,72532.5,-8.17,-31.23,-33.37,0,*53
1486357487.5,39265,9.69,72536.0,-8.17,-31.39,-33.49,0,*50
1486357488.79,39266,9.69,72532.5,-8.19,-31.57,-33.49,0,*55
1486357490.02,39267,9.69,72532.0,-8.17,-31.51,-33.55,0,*51
1486357491.28,39268,9.69,72534.5,-8.19,-31.39,-33.37,0,*5A
1486357492.53,39269,9.69,72540.0,-8.17,-31.39,-33.49,0,*5C
1486357493.79,39270,9.69,72536.3,-8.19,-31.57,-33.55,0,*5F
1486357495.05,39271,9.69,72534.3,-8.19,-31.57,-33.55,0,*5E
1486357496.31,39272,9.69,72536.8,-8.19,-31.57,-33.55,0,*5D
1486357497.56,39273,9.69,72534.5,-8.17,-31.51,-33.49,0,*59
1486357498.82,39274,9.69,72542.0,-8.17,-31.51,-33.49,0,*5E
1486357500.06,39275,9.69,72536.5,-8.17,-31.57,-33.55,0,*54
1486357501.31,39276,9.69,72534.0,-8.19,-31.57,-33.55,0,*59
1486357502.55,39277,9.69,72534.5,-8.19,-31.67,-33.67,0,*5A
1486357503.78,39278,9.69,72538.3,-8.19,-31.67,-33.67,0,*55
1486357505.01,39279,9.69,72536.0,-8.19,-31.67,-33.55,0,*55
1486357506.27,39280,9.69,72534.8,-8.19,-31.73,-33.67,0,*57
1486357507.5,39281,9.69,72532.5,-8.17,-31.67,-33.49,0,*51
1486357508.76,39282,9.69,72536.3,-8.19,-31.39,-33.37,0,*5E
1486357510.02,39283,9.69,72542.8,-8.19,-31.57,-33.67,0,*52
1486357511.28,39284,9.69,72540.5,-8.21,-31.73,-33.61,0,*5E
1486357512.53,39285,9.69,72538.3,-8.21,-31.45,-33.43,0,*5A
1486357513.76,39286,9.69,72536.3,-8.21,-31.39,-33.37,0,*51
1486357515.0,39287,9.69,72540.8,-8.21,-31.39,-33.37,0,*50
1486357516.22,39288,9.63,72540.3,-8.21,-31.29,-33.37,0,*5E
1486357517.47,39289,9.69,72542.3,-8.19,-31.39,-33.21,0,*52
1486357518.75,39290,9.69,72540.5,-8.19,-31.39,-33.31,0,*5B
1486357520.02,39291,9.69,72540.3,-8.19,-31.73,-33.67,0,*57
1486357521.28,39292,9.69,72538.3,-8.19,-31.73,-33.67,0,*54
1486357522.54,39293,9.69,72540.3,-8.19,-31.57,-33.55,0,*52
1486357523.77,39294,9.69,72540.0,-8.19,-31.79,-33.67,0,*58
1486357525.03,39295,9.69,72542.0,-8.19,-31.79,-33.73,0,*5C
1486357526.3,39296,9.69,72542.0,-8.21,-31.61,-33.43,0,*5E
1486357527.57,39297,9.69,72536.0,-8.21,-31.61,-33.43,0,*5F
1486357528.81,39298,9.69,72536.8,-8.21,-31.57,-33.55,0,*52
1486357530.05,39299,9.69,72542.3,-8.21,-31.73,-33.55,0,*55
1486357531.28,39300,9.69,72538.5,-8.21,-31.79,-33.73,0,*5A
1486357532.55,39301,9.69,72542.3,-8.21,-31.73,-33.73,0,*51
1486357533.81,39302,9.69,72540.0,-8.21,-31.85,-33.73,0,*5B
1486357535.05,39303,9.69,72540.0,-8.21,-32.01,-33.73,0,*55
1486357536.34,39304,9.69,72540.5,-8.23,-31.95,-33.77,0,*5A
1486357537.57,39305,9.69,72542.3,-8.21,-31.79,-33.61,0,*5C
1486357538.83,39306,9.69,72542.3,-8.21,-31.73,-33.61,0,*55
1486357540.07,39307,9.63,72538.3,-8.21,-31.57,-33.37,0,*51
1486357541.31,39308,9.69,72542.5,-8.21,-31.73,-33.55,0,*5C
1486357542.57,39309,9.69,72538.5,-8.21,-31.85,-33.61,0,*53
1486357543.85,39310,9.69,72536.8,-8.23,-31.85,-33.61,0,*59
1486357545.09,39311,9.63,72536.0,-8.21,-31.79,-33.73,0,*5A
1486357546.36,39312,9.69,72536.8,-8.21,-31.85,-33.73,0,*5A
1486357547.59,39313,9.63,72538.0,-8.21,-31.79,-33.61,0,*5B
1486357548.88,39314,9.69,72536.0,-8.23,-31.61,-33.43,0,*57
1486357550.12,39315,9.69,72536.0,-8.21,-31.73,-33.55,0,*50
1486357551.39,39316,9.69,72532.8,-8.21,-31.73,-33.43,0,*54
1486357552.65,39317,9.69,72530.5,-8.21,-31.95,-33.73,0,*5E
1486357553.89,39318,9.69,72528.8,-8.21,-32.01,-33.73,0,*5F
1486357555.13,39319,9.69,72532.3,-8.21,-32.01,-33.73,0,*5E
1486357556.37,39320,9.69,72542.5,-8.21,-32.13,-33.73,0,*57
1486357557.63,39321,9.69,72540.8,-8.21,-31.95,-33.61,0,*58
1486357558.9,39322,9.69,72548.8,-8.21,-31.73,-33.43,0,*53
1486357560.14,39323,9.69,72542.0,-8.21,-31.45,-33.09,0,*59
1486357561.41,39324,9.69,72538.5,-8.21,-31.23,-32.79,0,*58
1486357562.65,39325,9.69,72536.5,-8.21,-31.29,-32.85,0,*50
1486357563.92,39326,9.69,72538.3,-8.21,-31.11,-32.79,0,*5B
1486357565.17,39327,9.69,72530.8,-8.19,-31.05,-32.79,0,*54
1486357566.41,39328,9.63,72530.0,-8.19,-31.33,-32.91,0,*58
1486357567.66,39329,9.69,72534.8,-8.19,-31.05,-32.63,0,*51
1486357568.89,39330,9.69,72530.8,-8.17,-31.05,-32.63,0,*57
1486357570.13,39331,9.69,72528.3,-8.17,-31.33,-32.79,0,*58
1486357571.39,39332,9.69,72534.0,-8.15,-31.61,-33.15,0,*55
1486357572.66,39333,9.69,72532.8,-8.15,-31.67,-33.27,0,*53
1486357573.95,39334,9.69,72536.5,-8.15,-31.51,-33.09,0,*5D
1486357575.19,39335,9.69,72536.3,-8.17,-31.17,-32.75,0,*56
1486357576.45,39336,9.69,72536.0,-8.15,-30.95,-32.35,0,*58
1486357577.69,39337,9.69,72536.8,-8.13,-31.29,-32.75,0,*5D
1486357578.93,39338,9.69,72536.3,-8.15,-31.17,-32.69,0,*54
1486357580.18,39339,9.69,72536.0,-8.13,-31.45,-32.85,0,*56
1486357581.38,39340,9.69,72536.8,-8.13,-31.67,-33.15,0,*50
1486357582.59,39341,9.69,72538.5,-8.13,-31.33,-32.91,0,*5D
1486357583.86,39342,9.69,72532.8,-8.13,-31.61,-33.09,0,*59
1486357585.09,39343,9.69,72534.5,-8.11,-31.67,-33.21,0,*56
1486357586.35,39344,9.69,72532.5,-8.13,-31.91,-33.31,0,*5B
1486357587.61,39345,9.69,72532.5,-8.13,-32.07,-33.61,0,*53
1486357588.87,39346,9.69,72528.8,-8.13,-32.07,-33.49,0,*5A
1486357590.12,39347,9.69,72532.3,-8.11,-32.01,-33.37,0,*56
1486357591.35,39348,9.69,72530.8,-8.11,-32.13,-33.55,0,*5E
1486357592.61,39349,9.69,72528.8,-8.13,-32.19,-33.49,0,*5A
1486357593.87,39350,9.69,72530.0,-8.13,-32.19,-33.49,0,*52
1486357595.13,39351,9.69,72528.5,-8.11,-32.13,-33.43,0,*51
1486357596.37,39352,9.69,72530.8,-8.11,-32.01,-33.37,0,*52
1486357597.64,39353,9.69,72534.0,-8.11,-31.95,-33.21,0,*5A
1486357598.88,39354,9.69,72530.0,-8.11,-32.01,-33.21,0,*53
1486357600.18,39355,9.69,72534.3,-8.15,-32.07,-33.43,0,*54
1486357601.44,39356,9.69,72534.5,-8.13,-32.07,-33.27,0,*53
1486357602.71,39357,9.69,72532.5,-8.13,-32.07,-33.31,0,*55
1486357603.97,39358,9.69,72532.5,-8.15,-32.23,-33.49,0,*55
1486357605.19,39359,9.69,72534.5,-8.13,-32.35,-33.49,0,*55
1486357606.46,39360,9.69,72532.0,-8.13,-32.19,-33.31,0,*5E
1486357607.69,39361,9.69,72530.0,-8.13,-32.23,-33.31,0,*56
1486357608.92,39362,9.69,72528.5,-8.13,-32.23,-33.49,0,*5A
1486357610.18,39363,9.69,72530.0,-8.13,-32.19,-33.31,0,*5D
1486357611.41,39364,9.69,72530.3,-8.13,-32.19,-33.15,0,*5C
1486357612.68,39365,9.69,72528.5,-8.13,-32.19,-33.27,0,*5C
1486357613.91,39366,9.69,72536.3,-8.13,-32.35,-33.27,0,*51
1486357615.14,39367,9.69,72538.0,-8.13,-32.23,-33.31,0,*50
1486357616.38,39368,9.69,72542.0,-8.13,-32.39,-33.43,0,*51
1486357617.62,39369,9.69,72538.3,-8.13,-32.35,-33.27,0,*5E
1486357618.86,39370,9.69,72538.8,-8.13,-32.39,-33.43,0,*58
1486357620.11,39371,9.69,72538.0,-8.15,-32.35,-33.31,0,*56
1486357621.38,39372,9.69,72534.3,-8.13,-32.19,-33.09,0,*56
1486357622.64,39373,9.69,72534.5,-8.15,-32.23,-33.27,0,*54
1486357623.88,39374,9.69,72538.0,-8.13,-32.57,-33.49,0,*5E
1486357625.12,39375,9.69,72542.8,-8.13,-32.57,-33.43,0,*55
1486357626.38,39376,9.69,72540.8,-8.15,-32.19,-32.91,0,*54
1486357627.63,39377,9.63,72536.5,-8.13,-31.85,-32.69,0,*52
1486357628.86,39378,9.69,72538.5,-8.13,-31.73,-32.57,0,*59
1486357630.07,39379,9.69,72536.3,-8.13,-31.67,-32.51,0,*5B
1486357631.3,39380,9.69,72536.3,-8.13,-31.91,-32.57,0,*52
1486357632.54,39381,9.69,72532.3,-8.13,-31.85,-32.69,0,*5B
1486357633.8,39382,9.69,72532.8,-8.07,-31.79,-32.63,0,*54
1486357635.07,39383,9.69,72532.5,-8.11,-31.95,-32.69,0,*5A
1486357636.37,39384,9.69,72532.0,-8.07,-31.95,-32.75,0,*57
1486357637.6,39385,9.69,72530.3,-8.07,-32.13,-33.03,0,*5B
1486357638.86,39386,9.69,72528.5,-8.11,-32.19,-32.91,0,*5F
1486357640.13,39387,9.69,72530.8,-8.07,-32.13,-32.85,0,*56
1486357641.39,39388,9.69,72532.0,-8.07,-32.13,-32.79,0,*5A
1486357642.68,39389,9.69,72534.3,-8.07,-32.29,-32.79,0,*52
1486357643.91,39390,9.69,72534.5,-8.11,-32.35,-32.91,0,*56
1486357645.17,39391,9.69,72534.8,-8.07,-32.45,-33.21,0,*5D
1486357646.43,39392,9.69,72532.8,-8.11,-32.51,-33.09,0,*56
1486357647.66,39393,9.69,72532.5,-8.07,-32.57,-33.15,0,*5B
1486357648.92,39394,9.69,72534.3,-8.07,-32.45,-33.15,0,*5F
1486357650.18,39395,9.69,72532.3,-8.11,-32.45,-33.03,0,*5E
1486357651.44,39396,9.69,72538.0,-8.11,-32.45,-33.03,0,*5D
1486357652.67,39397,9.69,72532.0,-8.13,-32.51,-33.09,0,*51
1486357653.92,39398,9.69,72536.8,-8.11,-32.69,-33.21,0,*5D
1486357655.15,39399,9.69,72530.3,-8.07,-32.57,-33.03,0,*56
1486357656.41,39400,9.69,72530.3,-8.11,-32.63,-33.21,0,*51
1486357657.65,39401,9.69,72530.0,-8.11,-32.69,-33.21,0,*5A
1486357658.94,39402,9.69,72528.3,-8.11,-32.63,-33.09,0,*59
1486357660.18,39403,9.63,72526.3,-8.11,-32.69,-33.21,0,*58
1486357661.42,39404,9.69,72530.3,-8.11,-32.69,-33.21,0,*5F
1486357662.68,39405,9.69,72532.0,-8.11,-32.45,-32.91,0,*5A
1486357663.92,39406,9.69,72534.8,-8.13,-32.57,-32.85,0,*5D
1486357665.19,39407,9.69,72540.0,-8.11,-32.63,-32.91,0,*5C
1486357666.45,39408,9.69,72538.0,-8.11,-32.63,-32.91,0,*53
1486357667.66,39409,9.69,72542.3,-8.13,-32.35,-32.69,0,*54
1486357668.89,39410,9.69,72538.3,-8.13,-32.19,-32.39,0,*57
1486357670.18,39411,9.69,72538.3,-8.11,-32.19,-32.63,0,*5B
1486357671.41,39412,9.69,72536.3,-8.11,-32.35,-32.69,0,*5C
1486357672.67,39413,9.69,72542.0,-8.11,-32.29,-32.51,0,*5B
1486357673.94,39414,9.69,72536.8,-8.11,-32.19,-32.51,0,*5F
1486357675.17,39415,9.69,72532.3,-8.11,-32.35,-32.69,0,*5B
1486357676.41,39416,9.69,72534.5,-8.11,-32.35,-32.69,0,*58
1486357677.7,39417,9.69,72532.0,-8.11,-32.45,-32.79,0,*5F
1486357678.98,39418,9.69,72538.0,-8.11,-32.63,-32.79,0,*54
1486357680.21,39419,9.69,72542.8,-8.07,-32.39,-32.57,0,*51
1486357681.48,39420,9.69,72542.5,-8.07,-32.07,-32.23,0,*55
1486357682.77,39421,9.69,72538.0,-8.11,-31.91,-32.07,0,*59
1486357684.05,39422,9.69,72536.3,-8.07,-31.95,-32.29,0,*55
1486357685.32,39423,9.69,72536.3,-8.07,-32.07,-32.23,0,*56
1486357686.6,39424,9.69,72534.5,-8.07,-31.95,-32.29,0,*53
1486357687.89,39425,9.69,72532.5,-8.07,-32.29,-32.45,0,*5C
1486357689.14,39426,9.69,72534.8,-8.07,-32.29,-32.57,0,*5C
1486357690.36,39427,9.69,72530.5,-8.05,-32.45,-32.57,0,*55
1486357691.6,39428,9.69,72528.8,-8.05,-32.57,-32.79,0,*55
1486357692.87,39429,9.69,72532.8,-8.07,-32.57,-32.75,0,*5A
1486357694.14,39430,9.69,72530.5,-8.07,-32.57,-32.79,0,*5E
1486357695.43,39431,9.69,72524.8,-8.07,-32.63,-32.75,0,*54
1486357696.66,39432,9.69,72530.0,-8.07,-32.57,-32.57,0,*50
1486357697.94,39433,9.69,72530.5,-8.07,-32.45,-32.63,0,*55
1486357699.21,39434,9.69,72530.8,-8.11,-32.45,-32.51,0,*54
1486357700.49,39435,9.69,72530.0,-8.07,-32.45,-32.45,0,*57
1486357701.78,39436,9.69,72528.3,-8.11,-32.63,-32.63,0,*53
1486357703.03,39437,9.63,72524.0,-8.07,-32.45,-32.57,0,*56
1486357704.3,39438,9.69,72526.5,-8.11,-32.63,-32.69,0,*57
1486357705.58,39439,9.69,72526.3,-8.07,-32.63,-32.63,0,*5B
1486357706.81,39440,9.69,72534.5,-8.07,-32.57,-32.57,0,*55
1486357708.1,39441,9.69,72532.5,-8.07,-32.63,-32.63,0,*54